RH
61 62 62 63 64 64 65 66 72 77 78 81 81 84 84 80 80 81 80 80 84 87 86 86 82 80 81 84 86 88 91 90 91 94 95 95 97 98 96 95 92 89 90 90 91 90 87 82 79 78 76 75 75 73 68 64 62 61 63 63 62 61 61 60 60 60 60 60 58 57 54 53 49 49 49 47 47 46 47 48 48 47 46 46 44 45 45 45 38 27 23 21 20 20 20 19 19
62 64 65 65 67 68 69 70 79 83 83 85 84 86 85 84 84 84 85 84 85 87 88 86 81 79 79 82 84 86 90 91 91 92 95 96 98 98 96 94 92 91 90 91 91 90 88 84 80 78 77 77 76 70 64 63 61 61 61 59 60 60 59 58 56 55 54 54 55 55 53 52 50 48 48 47 47 46 46 46 46 46 45 46 46 46 46 47 44 32 25 24 22 22 22 21 21
65 66 68 69 70 71 73 76 84 86 88 89 87 87 85 87 88 83 83 86 86 84 86 84 81 81 80 83 86 87 91 91 91 92 95 95 96 97 96 93 93 92 91 90 88 86 86 85 82 79 78 77 73 66 64 64 61 59 57 57 58 57 56 55 52 49 47 47 47 47 46 47 47 45 45 44 44 44 44 44 44 45 44 45 45 46 46 46 47 37 26 24 24 23 23 22 22
69 70 71 72 73 77 82 85 88 88 90 90 89 89 86 87 88 84 82 86 87 84 85 82 81 82 82 86 88 89 91 92 91 92 92 92 91 92 91 89 89 89 88 87 84 84 84 84 82 79 77 76 69 63 65 66 63 58 54 56 57 54 52 51 50 48 46 46 46 46 44 45 46 45 44 44 44 43 43 43 43 44 43 44 44 44 46 45 46 41 29 24 25 24 24 23 22
74 76 77 77 78 83 87 89 89 90 91 90 91 91 86 85 88 87 84 87 89 87 85 83 83 82 82 86 88 88 89 91 91 90 90 90 89 88 87 85 85 86 87 88 86 84 84 84 82 78 75 72 66 61 62 63 62 56 52 55 55 52 51 50 50 48 47 47 47 47 45 47 47 45 45 44 44 43 43 42 42 43 42 42 42 42 44 42 43 41 29 22 23 22 22 22 22
79 81 81 79 81 84 88 91 92 94 92 91 92 91 88 85 88 88 84 85 88 87 85 83 84 84 84 86 87 88 87 88 89 89 87 87 87 87 88 87 85 84 83 86 86 83 82 82 80 78 74 68 63 59 57 57 57 53 53 55 53 53 52 50 49 49 49 49 48 47 46 47 46 44 44 43 43 42 42 41 42 42 41 40 40 40 39 40 40 33 23 20 20 20 20 20 20
80 82 82 81 84 86 91 94 94 96 95 91 89 90 90 88 89 89 86 85 86 86 85 85 84 85 89 89 90 90 88 88 88 88 88 87 86 87 89 87 85 82 81 81 80 79 77 73 72 73 69 64 63 62 58 56 56 55 55 54 53 53 53 51 50 50 50 49 48 47 45 46 45 43 42 42 41 41 41 40 40 41 40 38 36 37 37 38 34 23 18 19 18 18 18 17 18
81 82 82 85 90 90 92 94 94 97 95 91 89 88 90 89 89 90 89 87 87 88 87 88 86 87 91 91 92 93 91 90 89 89 90 89 88 89 89 87 84 83 81 80 79 77 73 67 67 67 64 60 58 59 57 55 56 56 55 55 55 55 55 54 52 50 49 49 48 46 44 44 44 42 41 41 41 40 40 39 39 39 38 34 27 27 30 29 25 19 17 17 17 17 17 16 16
80 81 81 85 90 90 90 91 92 95 94 94 92 89 89 89 90 89 89 90 89 90 90 90 89 89 92 91 93 94 92 91 91 91 90 90 89 88 87 85 83 82 81 80 80 78 76 73 72 71 68 64 60 60 58 55 56 56 55 56 57 55 54 53 53 51 49 48 47 46 45 45 44 43 42 41 41 40 39 38 37 34 32 28 20 18 19 19 18 17 16 16 16 16 16 16 16
79 79 80 84 88 89 90 89 89 89 88 91 92 89 88 89 90 88 89 90 89 90 91 90 90 92 93 93 93 94 93 92 91 91 91 89 86 83 81 79 77 76 76 74 74 73 73 71 70 69 69 68 64 61 57 52 50 50 52 53 54 53 52 51 51 52 51 50 48 47 46 45 44 43 42 41 39 38 37 36 35 32 27 23 18 17 16 16 16 15 16 15 15 15 15 15 15
79 78 79 84 88 88 89 89 86 82 79 79 83 84 84 86 88 88 90 91 90 91 91 91 92 93 95 95 93 91 93 94 92 88 84 81 79 78 75 73 70 68 67 66 65 63 62 62 62 61 60 59 55 51 49 46 41 40 44 47 50 52 52 50 50 51 48 45 44 44 43 43 42 41 41 39 38 38 37 36 36 32 23 19 17 17 17 17 17 16 16 16 15 15 15 14 14
78 78 78 84 85 85 87 87 84 80 77 74 75 77 79 82 84 86 89 91 90 91 90 90 91 91 95 98 94 92 92 93 92 86 78 73 72 72 69 67 66 65 63 62 61 59 58 58 59 57 55 51 46 45 45 43 37 33 34 36 40 42 41 40 40 39 35 30 30 32 32 35 36 35 32 30 33 34 31 29 29 26 20 18 18 18 18 18 18 17 17 16 16 14 14 13 12
67 70 75 81 79 79 81 81 80 76 73 72 73 74 75 78 81 82 83 85 86 88 86 85 86 86 91 94 92 90 87 87 87 86 80 75 72 69 65 64 63 63 63 62 61 59 58 57 57 55 51 46 44 44 44 42 36 30 30 31 31 31 30 28 28 27 24 22 22 22 22 24 26 25 23 22 25 25 23 21 21 21 19 20 19 19 19 19 19 18 17 16 15 13 13 12 11
51 53 60 69 71 71 71 73 74 74 70 68 69 70 73 74 76 78 78 79 79 81 80 80 80 80 85 86 86 86 83 83 83 82 80 77 74 70 66 65 64 64 63 62 60 58 57 57 56 53 49 46 45 44 42 41 36 29 29 30 28 28 27 26 25 24 23 22 21 21 20 21 21 21 21 21 22 21 20 20 20 20 20 20 20 20 20 19 19 17 16 15 14 12 12 11 11
43 43 45 51 55 57 61 63 64 72 70 65 65 65 69 67 67 73 73 75 76 75 73 76 78 78 80 79 79 82 83 84 84 82 79 75 73 70 68 66 66 64 63 61 59 57 55 55 54 52 49 47 45 44 42 41 38 32 29 31 29 27 27 26 24 23 22 22 21 20 20 20 20 20 20 20 20 20 20 20 20 21 21 21 20 20 19 18 16 15 14 12 12 11 11 11 11
35 36 39 43 43 44 46 46 49 61 62 60 62 63 63 60 62 68 67 68 70 71 70 73 76 74 74 75 75 77 80 81 82 80 76 72 69 68 66 65 64 62 61 58 56 54 51 50 50 49 47 45 43 42 42 40 38 32 27 29 28 26 25 24 22 21 20 18 17 18 18 18 19 19 20 20 21 21 21 22 22 23 22 22 21 19 17 16 14 13 12 12 11 11 11 11 11
28 31 37 39 39 40 38 34 37 44 45 46 50 52 53 53 55 59 59 60 62 65 66 67 72 71 70 73 74 75 77 79 79 76 71 68 66 65 64 62 60 58 57 53 50 49 46 43 42 42 41 40 38 38 38 37 35 30 24 25 25 23 23 22 21 20 18 17 18 19 20 21 22 23 23 23 23 24 24 24 24 23 22 21 19 17 15 13 12 11 11 10 10 10 10 9 10
30 33 37 38 39 40 38 35 35 35 36 37 39 38 38 39 41 44 46 48 50 55 58 58 63 65 67 70 72 74 75 75 74 71 67 64 62 61 60 58 55 53 50 46 43 43 41 38 36 35 35 33 33 35 35 35 34 30 25 24 25 24 24 24 23 22 22 23 24 25 26 26 26 26 25 25 24 24 24 23 22 21 19 16 14 12 11 10 8 8 7 7 6 6 6 6 6
34 37 39 40 41 40 36 35 34 35 38 38 38 36 33 31 30 32 34 35 38 43 45 46 50 54 59 62 65 67 68 69 67 64 61 58 57 55 54 52 50 48 45 43 41 39 38 36 35 34 33 34 34 35 36 37 37 34 30 29 30 30 30 30 29 29 28 29 29 28 28 26 25 24 24 23 23 22 21 19 18 15 13 11 9 8 7 6 5 5 4 4 4 4 4 4 4
36 38 41 41 40 39 37 36 34 34 37 39 40 39 37 31 29 30 30 31 33 35 36 36 40 44 47 50 52 55 57 58 57 57 55 52 51 49 48 48 48 47 45 43 41 40 39 38 38 38 38 39 39 39 40 41 41 39 35 34 35 35 35 34 32 32 31 29 28 26 25 23 22 21 20 20 18 17 15 14 12 11 9 8 7 6 4 4 3 3 3 3 3 3 3 3 3
36 39 43 39 35 36 35 34 34 33 34 37 39 39 38 34 32 32 31 34 34 34 34 33 34 37 41 44 45 46 48 49 49 50 49 48 47 47 46 47 47 47 47 46 45 45 44 44 43 43 43 43 43 42 42 43 43 42 39 38 38 38 36 34 31 29 27 25 23 21 20 19 18 18 17 15 14 12 12 11 10 8 7 6 5 4 4 3 3 3 3 3 3 3 3 3 3
36 36 38 35 32 32 31 30 31 31 31 33 36 35 35 34 34 34 34 36 35 33 35 36 37 38 40 43 46 46 47 49 50 50 49 49 49 49 49 50 51 51 51 51 50 49 48 47 46 45 45 45 45 44 44 45 46 45 41 38 37 35 32 29 26 24 22 21 19 18 17 16 16 15 14 12 11 11 10 9 8 7 6 5 4 3 3 3 3 3 3 3 3 3 3 4 4
36 34 33 33 32 29 29 28 27 28 28 30 32 31 32 33 34 35 35 35 34 33 34 37 39 40 41 44 47 48 49 50 51 51 52 51 51 51 50 50 52 52 52 51 50 49 48 47 46 46 46 46 45 44 44 44 42 40 36 33 31 29 26 24 23 21 20 19 18 17 16 16 15 13 12 11 11 10 9 8 7 6 5 5 4 3 3 3 3 3 3 4 4 4 4 4 4
35 35 34 33 31 28 28 27 27 27 27 28 29 30 30 32 33 33 34 35 35 35 36 37 38 40 42 44 46 47 47 48 48 49 51 52 51 51 50 50 50 50 50 49 48 47 47 47 46 45 45 44 42 39 37 36 35 33 31 28 27 25 24 23 22 21 20 19 17 17 16 14 12 11 10 10 10 9 8 7 7 6 5 4 4 4 3 4 4 4 4 4 4 4 4 4 5
34 34 33 31 29 28 28 27 28 27 27 27 27 28 28 29 29 30 31 33 33 33 35 37 37 39 40 42 43 45 45 45 46 49 51 52 51 51 50 49 49 49 48 48 47 45 44 43 42 40 38 37 35 32 31 31 30 30 29 27 26 25 24 23 23 21 19 18 18 16 14 12 10 10 10 10 10 9 8 7 6 6 5 5 4 4 4 4 4 4 4 4 4 5 5 5 5
29 29 29 28 26 25 26 26 27 27 27 27 27 27 27 27 27 28 29 30 31 32 33 35 36 37 39 40 41 42 42 43 45 48 51 51 51 50 49 49 48 46 45 44 42 41 39 37 36 35 33 33 32 30 29 29 30 30 29 27 26 26 25 24 23 21 19 18 18 15 12 10 9 10 10 10 9 9 8 7 7 7 6 5 4 4 4 4 4 4 5 5 5 5 6 6 6
24 24 24 23 23 22 22 24 25 26 26 26 26 27 27 28 29 30 30 29 31 32 32 35 36 37 38 39 39 40 40 40 41 44 48 49 48 47 46 45 43 41 39 38 37 36 36 35 34 33 33 32 31 30 29 29 29 29 29 28 27 27 25 24 22 21 20 18 16 13 11 10 10 10 10 10 9 9 8 8 8 7 7 6 5 5 5 5 5 5 6 6 6 7 7 7 8
20 19 19 19 19 20 20 21 22 22 23 24 23 23 24 28 30 30 29 29 31 31 31 32 34 35 35 36 36 37 37 36 37 39 42 42 42 41 40 38 37 36 35 34 35 35 35 35 34 34 33 32 31 30 29 29 29 29 29 28 27 27 25 24 22 21 20 17 14 12 11 11 10 10 10 10 10 10 9 9 9 8 8 7 6 5 5 6 6 6 6 7 7 7 8 8 8
17 17 19 20 18 18 19 19 20 21 22 22 21 21 23 25 25 24 23 25 25 25 26 26 28 29 30 31 31 31 31 31 32 33 34 35 37 37 37 36 35 34 34 33 33 34 34 34 34 34 33 32 31 30 29 29 29 29 29 28 27 27 25 24 22 21 18 15 12 12 12 11 11 11 11 11 11 11 10 10 10 9 9 8 7 6 6 6 7 7 7 8 8 8 8 9 9
17 17 18 20 20 22 20 18 20 21 21 20 19 22 23 22 19 17 18 19 20 21 21 21 23 24 26 28 27 27 27 27 27 27 29 32 34 35 35 35 34 34 34 33 33 34 35 35 34 34 33 32 31 31 30 30 29 29 29 29 27 26 26 24 22 20 16 14 12 13 13 12 12 11 11 12 12 12 11 11 11 10 10 9 8 7 7 7 8 8 8 8 8 9 9 9 9
17 18 20 21 22 26 21 18 20 20 20 19 19 22 21 18 15 14 16 16 16 18 18 19 19 20 22 24 25 25 24 24 24 24 26 30 32 33 34 35 35 35 35 34 34 35 35 35 34 34 33 32 31 30 30 30 30 29 29 28 27 26 26 25 22 18 15 14 13 13 13 13 13 12 12 12 12 13 13 12 12 11 11 10 8 8 8 8 8 8 8 9 9 9 9 9 10
18 20 26 27 25 27 23 18 20 20 19 19 20 23 21 16 15 13 13 14 14 14 15 15 16 16 17 19 21 21 22 22 23 24 25 27 30 31 32 34 35 35 35 35 35 35 35 35 34 33 33 32 31 31 30 31 30 29 29 29 28 27 26 24 21 18 16 15 14 14 14 14 14 14 13 13 14 14 14 14 13 13 12 10 9 8 8 9 9 9 9 9 10 10 10 11 11
24 24 27 29 25 27 25 21 20 19 20 20 20 23 20 16 13 11 12 12 12 13 13 13 13 13 14 15 16 17 18 20 21 22 23 25 27 28 31 32 33 34 35 35 36 35 34 33 33 32 32 31 31 31 31 31 30 30 29 29 29 27 26 23 20 18 17 16 15 15 15 15 15 15 14 14 14 14 14 15 14 14 14 12 10 9 9 10 10 10 10 11 11 11 12 12 12
30 29 29 29 26 25 26 24 21 19 20 21 21 21 16 12 11 10 11 10 11 11 10 11 11 11 11 12 13 14 15 17 17 16 18 21 23 26 28 30 32 34 35 35 35 35 33 32 32 31 31 31 31 31 31 31 31 30 30 30 29 27 24 22 21 20 18 17 16 15 15 15 15 15 15 15 15 15 16 16 16 16 16 14 12 11 11 12 12 12 12 13 13 13 13 14 14
29 30 30 28 26 23 23 23 20 19 21 20 20 19 14 11 10 9 9 10 10 11 9 9 10 10 11 11 12 13 14 14 12 11 14 18 20 23 25 27 30 32 34 34 34 34 32 31 31 30 31 31 32 32 32 32 31 31 31 30 29 27 24 22 22 21 20 19 17 17 16 16 17 17 17 17 17 17 18 18 19 19 19 18 16 14 14 14 14 15 15 15 15 16 16 16 16
25 25 25 25 26 24 21 22 21 20 22 22 20 18 14 12 12 11 10 10 10 10 10 10 10 11 11 12 12 13 13 13 10 10 13 16 18 19 21 24 27 29 31 32 32 31 31 30 30 31 32 33 32 32 32 32 32 31 31 30 28 26 24 23 22 22 21 20 19 19 18 18 19 19 19 19 19 19 20 20 22 22 22 21 20 19 18 17 18 18 18 18 19 19 19 19 19
22 23 25 25 25 22 21 23 24 23 23 23 22 19 16 13 12 12 10 11 12 12 12 12 11 12 12 13 13 13 13 11 10 12 13 14 16 17 19 21 23 26 27 29 29 29 29 29 29 29 31 32 31 31 32 32 32 31 30 29 28 26 25 24 23 22 22 21 21 20 20 20 20 20 21 21 21 21 21 22 23 24 24 23 22 21 20 20 20 20 20 21 21 21 21 22 22
23 23 23 23 23 21 20 23 25 24 21 21 20 17 14 12 12 11 11 11 12 13 13 13 12 12 12 13 13 13 13 12 13 14 14 14 15 16 17 19 21 23 23 25 27 28 28 28 27 27 28 30 30 32 33 33 34 32 30 28 27 27 25 24 23 22 22 21 21 21 21 21 21 21 21 21 22 22 22 23 23 24 24 24 24 23 22 21 21 21 22 22 22 22 23 23 24
23 23 21 22 23 21 20 23 23 21 18 17 17 15 13 12 12 13 13 12 11 11 11 12 12 12 12 12 12 13 13 14 14 14 14 14 14 15 16 18 19 20 20 22 25 27 28 27 27 27 29 30 31 32 33 33 33 32 31 30 29 28 27 25 24 23 23 23 23 23 22 22 22 22 22 23 23 23 24 24 25 25 25 26 25 24 24 23 23 23 23 24 23 23 24 25 26
21 22 20 21 24 20 19 21 19 18 17 16 17 18 16 14 15 14 14 13 12 11 11 11 11 12 12 11 11 12 13 14 14 15 15 15 16 17 18 18 19 19 21 23 25 26 27 27 26 27 28 29 30 31 31 31 32 32 31 31 30 30 29 28 26 26 26 26 26 25 25 24 24 25 25 25 25 25 26 26 26 27 27 28 28 28 27 26 26 25 26 26 26 25 25 26 27
20 22 20 21 24 23 21 21 19 18 20 22 20 20 18 17 18 15 12 14 14 14 13 13 13 13 13 13 13 14 15 15 15 16 16 17 18 18 19 19 20 21 22 22 22 23 24 24 25 26 27 28 29 30 31 32 34 34 33 33 32 32 31 30 29 29 28 28 27 26 25 25 26 27 27 27 27 28 28 28 28 28 29 29 30 30 30 30 29 29 29 29 29 29 29 29 29
18 21 23 23 24 24 23 23 20 17 20 23 21 23 24 20 18 16 13 15 16 15 15 15 14 15 15 16 15 15 16 16 16 16 16 17 17 18 19 20 21 21 21 21 21 21 22 23 24 26 26 27 29 31 33 34 35 35 35 34 34 33 32 30 28 27 26 26 25 25 26 27 27 28 28 29 30 30 30 30 30 30 30 31 31 32 32 32 32 31 31 31 31 33 33 33 33
13 18 22 23 22 22 22 22 20 18 19 19 21 27 29 21 17 17 15 17 17 16 17 17 15 15 15 15 15 16 16 16 17 17 17 18 18 18 19 20 21 21 20 20 21 22 23 23 24 25 25 27 28 30 33 35 35 35 35 35 34 33 31 29 27 27 28 28 28 28 29 29 29 30 31 32 33 33 33 33 33 33 33 33 32 33 33 34 34 33 33 33 34 35 35 36 36
14 17 21 21 20 20 22 22 22 24 23 23 24 27 32 28 20 18 18 18 19 19 18 19 18 16 15 14 14 15 15 16 17 18 18 19 19 19 19 19 20 20 20 20 21 21 21 22 23 24 25 26 27 29 31 33 34 35 35 36 35 34 32 30 31 33 33 33 33 33 32 32 33 34 34 35 36 37 37 38 38 38 38 38 37 36 35 35 35 35 36 36 36 37 37 38 39
16 20 22 21 21 22 24 25 27 29 27 27 28 28 34 34 23 19 20 17 19 19 19 20 19 16 15 14 14 14 13 14 15 16 17 18 18 18 18 18 17 17 18 18 18 18 18 19 20 21 22 23 24 26 28 29 31 33 33 33 33 32 32 34 36 36 36 37 37 36 36 36 36 36 36 36 37 38 38 39 39 40 41 42 42 41 40 39 37 37 37 38 38 39 40 41 42
18 23 24 24 26 26 25 26 28 31 32 29 29 30 32 29 20 17 18 17 18 19 18 18 17 14 14 13 13 14 14 14 14 15 16 17 17 17 17 17 17 17 18 18 18 19 19 19 19 20 19 19 20 21 23 24 25 27 27 27 27 27 29 31 33 34 35 36 36 37 38 38 38 38 38 38 38 39 40 40 40 40 40 41 43 44 46 46 44 42 40 39 40 42 43 44 45
19 22 25 24 27 29 28 30 29 32 37 33 30 33 30 24 19 16 17 20 22 19 16 16 15 14 14 14 15 16 16 16 16 16 16 17 18 18 18 19 19 19 20 20 21 21 21 21 21 21 20 20 19 20 20 21 22 22 23 23 23 23 25 27 28 29 31 32 33 35 37 37 38 39 40 40 40 41 42 43 43 42 42 42 43 44 46 48 50 48 46 43 42 44 46 48 48
21 24 24 19 24 28 27 31 31 36 43 34 29 31 28 25 21 17 19 23 23 20 17 16 16 16 15 15 17 17 17 17 17 17 17 17 18 18 19 19 19 19 20 20 21 21 22 22 23 22 22 21 21 21 22 22 22 23 22 23 23 23 24 24 25 25 27 29 30 32 33 35 37 38 40 41 41 43 44 45 46 45 45 44 44 45 46 48 51 52 52 50 47 46 48 49 50
25 27 23 20 26 27 28 36 35 36 39 30 24 26 23 21 19 17 19 19 19 20 19 18 17 16 15 16 17 17 18 19 19 19 19 18 18 18 19 18 18 19 19 19 20 20 21 22 23 23 23 23 23 24 24 24 25 25 24 25 24 24 24 24 24 24 25 26 27 29 30 32 34 35 37 39 41 43 45 46 47 48 47 47 46 46 47 48 50 53 55 55 54 52 51 51 51
25 25 20 24 29 24 28 38 33 31 33 25 21 22 21 18 17 19 18 16 17 18 17 18 18 17 17 17 17 18 19 20 20 21 20 19 19 20 20 20 20 20 21 21 22 22 23 23 24 25 24 25 26 27 27 27 28 28 28 28 28 28 28 27 27 26 25 25 25 26 27 29 30 32 34 37 40 42 44 46 48 49 49 49 48 48 48 49 50 52 54 57 59 59 58 56 56
25 23 19 24 28 23 27 33 29 31 33 26 21 22 23 20 18 22 21 17 18 17 16 18 17 18 18 17 18 18 19 20 20 21 20 20 20 21 22 22 23 23 23 24 25 25 26 26 27 27 27 28 28 29 29 30 30 30 30 31 32 32 32 32 32 31 30 29 28 28 28 28 29 30 33 36 40 43 45 46 48 49 50 50 50 50 50 50 52 53 54 56 59 62 65 64 63
22 20 18 22 26 24 26 28 27 28 28 27 26 24 23 19 16 20 22 20 20 19 18 19 18 18 18 17 18 18 18 20 20 20 20 19 20 22 23 24 24 25 25 26 26 27 27 28 28 29 29 30 31 31 32 32 32 33 33 34 34 35 36 37 36 36 35 34 33 32 32 31 31 32 35 38 41 44 46 48 49 49 50 51 52 53 52 52 53 55 56 57 59 62 67 70 72
20 19 20 25 25 22 24 29 29 27 26 27 25 22 20 17 16 19 21 21 22 21 22 23 21 20 19 18 18 17 18 19 19 20 20 20 21 22 23 25 25 26 27 27 28 28 28 29 29 30 31 32 33 34 34 35 36 36 36 37 37 38 38 38 38 38 38 38 38 37 35 34 35 36 38 40 43 45 47 49 50 50 51 53 54 55 55 55 55 56 58 60 61 63 66 70 74
20 21 24 25 24 22 24 30 32 30 31 31 25 22 19 17 18 20 19 19 21 22 23 23 22 21 20 20 19 17 18 18 19 21 22 23 24 23 24 24 25 26 27 28 29 30 31 31 32 32 32 33 34 36 36 38 39 39 40 40 39 40 40 40 41 41 41 42 42 40 38 37 37 39 42 44 46 47 49 50 51 51 52 53 55 56 57 57 58 59 61 63 66 67 68 68 72
22 23 25 23 24 28 27 29 32 33 36 37 31 26 21 17 19 19 18 20 21 21 22 22 21 21 22 21 20 18 18 19 21 22 23 25 25 25 24 24 26 27 27 29 30 31 32 33 34 34 34 35 35 37 38 39 41 42 42 42 41 42 43 43 44 44 45 45 44 43 41 40 40 43 46 48 50 51 51 52 52 53 53 53 54 56 58 59 60 62 65 67 69 70 70 70 71
24 23 25 23 26 31 30 29 33 35 36 37 33 30 24 17 19 20 19 22 23 22 22 22 21 21 21 22 21 20 20 20 21 22 22 24 25 25 24 25 26 27 28 30 31 33 34 35 36 37 36 36 37 38 39 39 41 42 43 43 43 44 45 46 46 47 47 47 46 45 44 43 45 48 51 53 53 54 54 54 55 55 55 55 55 56 59 61 64 66 68 70 70 70 70 71 74
27 24 25 25 24 28 29 27 30 34 36 37 34 30 23 16 18 20 19 21 23 23 23 22 21 21 21 22 22 21 22 22 22 22 23 25 26 25 25 26 27 28 30 31 32 34 36 37 39 39 39 39 39 40 41 41 42 43 44 44 44 45 46 47 48 49 49 49 48 47 46 48 50 53 55 56 57 58 58 58 58 58 58 57 57 58 60 63 66 67 68 68 69 71 73 76 79
26 25 26 26 25 28 29 28 29 30 32 35 33 26 19 17 18 18 18 21 22 23 24 24 22 21 21 22 22 22 23 23 23 24 25 27 27 26 27 27 28 30 31 32 34 35 37 40 42 42 42 43 43 44 44 44 45 46 46 46 46 47 47 49 50 51 51 51 50 49 49 52 55 57 60 61 61 62 62 62 62 62 62 61 62 62 63 64 65 65 67 69 72 76 78 80 82